Weather in Blagoveshchenka

Kazakhstan     54°22′08″N   66°58′23″E
temp.,
°C
wind,
m/s
gust,
m/s
humid.,
%
clouds,
%
prec.,
mm/h
press.,
hPa
HPBL,
m
16 may, mon
mon1600:00+13sw4108497 0.3 1007423
03:00+13ssw51080100 0.0 1008469
06:00+12s41091100 0.1 1007249
09:00+15s61371100 0.1 1004795
12:00+18ssw81857100 0.2 10031719
15:00+22sw101642100 0.0 10012853
18:00+18ssw8136120 2.0 1001929
21:00+16ssw6116436 1.0 1000275
17 may, tue
tue1700:00+13sw613763 1.1 1001315
03:00+12sw614695 0.0 1001390
06:00+11sw613780 0.0 1002449
09:00+14sw812640 0.0 10031122
12:00+17wsw10134514 0.0 10032169
15:00+16wsw7124864 0.0 10041334
18:00+19w8124145 0.0 10042491
21:00+15w355615 0.0 100683
18 may, wed
wed1800:00+13ssw34595 0.0 100753
03:00+12sw3565100 0.0 100765
06:00+11ssw376945 0.0 1008121
09:00+15sw5958100 0.0 1008609
12:00+18sw6946100 0.0 10081910
15:00+18sw4644100 0.0 10061644
18:00+18s3545100 0.0 10051511
21:00+13se587975 0.1 1004217
19 may, thu
thu1900:00+13w7116877 0.1 1004648
03:00+11sw4875100 0.0 1004323
06:00+11wsw61268100 0.2 1004536
09:00+13wsw812595 0.0 10051173
12:00+15wsw91150100 0.4 10062072
15:00+15wsw8134811 0.3 10072166
18:00+15wsw91350100 0.3 10071384
21:00+14wsw5954100 0.0 1007323
20 may, fri
fri2000:00+12sw51067100 0.3 1008381
03:00+10wsw377995 0.1 1008146
06:00+8wsw2382100 0.1 101056
09:00+12ssw2368100 0.0 1010412
12:00+14ssw5765100 0.3 1009804
15:00+12sw4676100 1.9 1009698
18:00+11s4684100 2.9 1008365
21:00+11s2482100 0.1 1007174